Location: Bh?mavarapp?du
(16.7041°N, 80.6518°E)
Time: 07:17:17
(UTC+00:00)

RESURS DK-1 - Pass Details

Date: 21 April 2021
Orbit: 554 x 563 km, 69.9° (Epoch: 05 May)

Event Time Altitude Azimuth Distance (km) Brightness Sun altitude
Rises 13:37:02 0° 213° (SSW) 2,718 6.1 -10.7°
Reaches altitude 10° 13:39:21 10° 221° (SW) 1,827 5.3 -11.3°
Maximum altitude 13:43:08 37° 289° (WNW) 873 4.1 -12.1°
Drops below altitude 10° 13:46:56 10° 358° (N) 1,834 5.2 -13.0°
Sets 13:49:15 0° 6° (N) 2,731 6.0 -13.5°
